Météo par heure à Paris

Ce jour, 13 Avril, Mardi

Heure Température Précipitation Vent Pression Humidité
00:00 +3°C° 0 mm 2 m/s 768 mmHg 82%
01:00 +2°C° 0 mm 2 m/s 768 mmHg 83%
02:00 +2°C° 0 mm 2 m/s 769 mmHg 84%
03:00 +2°C° 0 mm 2 m/s 769 mmHg 84%
04:00 +1°C° 0 mm 2 m/s 769 mmHg 83%
05:00 +1°C° 0 mm 2 m/s 769 mmHg 81%
06:00 +1°C° 0 mm 2 m/s 769 mmHg 80%
07:00 +3°C° 0 mm 2 m/s 769 mmHg 68%
08:00 +3°C° 0 mm 3 m/s 770 mmHg 55%
09:00 +5°C° 0 mm 3 m/s 770 mmHg 43%
10:00 +7°C° 0 mm 3 m/s 770 mmHg 40%
11:00 +8°C° 0 mm 3 m/s 769 mmHg 37%
12:00 +9°C° 0 mm 3 m/s 769 mmHg 34%
13:00 +10°C° 0 mm 3 m/s 769 mmHg 34%
14:00 +10°C° 0 mm 3 m/s 768 mmHg 34%
15:00 +10°C° 0 mm 3 m/s 768 mmHg 34%
16:00 +10°C° 0 mm 3 m/s 768 mmHg 38%
17:00 +9°C° 0 mm 3 m/s 768 mmHg 43%
18:00 +8°C° 0 mm 3 m/s 768 mmHg 48%
19:00 +7°C° 0 mm 3 m/s 768 mmHg 50%
20:00 +6°C° 0 mm 2 m/s 768 mmHg 52%
21:00 +5°C° 0 mm 2 m/s 769 mmHg 54%
22:00 +4°C° 0 mm 2 m/s 769 mmHg 56%
23:00 +4°C° 0 mm 2 m/s 768 mmHg 59%

Demain, 14 Avril, Mercredi

Heure Température Précipitation Vent Pression Humidité
00:00 +3°C° 0 mm 2 m/s 768 mmHg 61%
01:00 +3°C° 0 mm 2 m/s 768 mmHg 63%
02:00 +2°C° 0 mm 2 m/s 768 mmHg 65%
03:00 +2°C° 0 mm 2 m/s 768 mmHg 68%
04:00 +2°C° 0 mm 2 m/s 768 mmHg 69%
05:00 +2°C° 0 mm 2 m/s 768 mmHg 69%
06:00 +2°C° 0 mm 2 m/s 768 mmHg 70%
07:00 +4°C° 0 mm 2 m/s 768 mmHg 62%
08:00 +5°C° 0 mm 3 m/s 768 mmHg 54%
09:00 +8°C° 0 mm 3 m/s 768 mmHg 46%
10:00 +9°C° 0 mm 3 m/s 768 mmHg 43%
11:00 +10°C° 0 mm 3 m/s 768 mmHg 39%
12:00 +11°C° 0 mm 4 m/s 767 mmHg 35%
13:00 +11°C° 0 mm 4 m/s 767 mmHg 35%
14:00 +11°C° 0 mm 4 m/s 766 mmHg 35%
15:00 +11°C° 0 mm 4 m/s 766 mmHg 35%
16:00 +10°C° 0 mm 4 m/s 766 mmHg 40%
17:00 +8°C° 0 mm 4 m/s 766 mmHg 46%
18:00 +8°C° 0 mm 4 m/s 766 mmHg 51%
19:00 +6°C° 0 mm 4 m/s 767 mmHg 55%
20:00 +5°C° 0 mm 4 m/s 767 mmHg 59%
21:00 +4°C° 0 mm 4 m/s 767 mmHg 63%
22:00 +3°C° 0 mm 4 m/s 767 mmHg 66%
23:00 +1°C° 0 mm 4 m/s 767 mmHg 69%

Après-demain, 15 Avril, Jeudi

Heure Température Précipitation Vent Pression Humidité
00:00 +2°C° 0 mm 3 m/s 767 mmHg 72%
01:00 +1°C° 0 mm 3 m/s 767 mmHg 75%
02:00 +1°C° 0 mm 3 m/s 767 mmHg 77%
03:00 0°C° 0 mm 3 m/s 767 mmHg 80%
04:00 0°C° 0 mm 3 m/s 767 mmHg 80%
05:00 0°C° 0 mm 3 m/s 767 mmHg 80%
06:00 0°C° 0 mm 3 m/s 767 mmHg 80%
07:00 +2°C° 0 mm 3 m/s 767 mmHg 72%
08:00 +4°C° 0 mm 4 m/s 767 mmHg 64%
09:00 +6°C° 0 mm 4 m/s 767 mmHg 55%
10:00 +7°C° 0 mm 4 m/s 766 mmHg 50%
11:00 +8°C° 0 mm 4 m/s 766 mmHg 45%
12:00 +10°C° 0 mm 4 m/s 766 mmHg 40%
13:00 +10°C° 0 mm 4 m/s 765 mmHg 41%
14:00 +10°C° 0 mm 4 m/s 765 mmHg 41%
15:00 +8°C° 0 mm 5 m/s 764 mmHg 42%
16:00 +8°C° 0 mm 4 m/s 764 mmHg 45%
17:00 +7°C° 0 mm 4 m/s 764 mmHg 49%
18:00 +6°C° 0 mm 4 m/s 764 mmHg 53%
19:00 +5°C° 0 mm 4 m/s 764 mmHg 59%
20:00 +4°C° 0 mm 4 m/s 764 mmHg 64%
21:00 +3°C° 0 mm 3 m/s 764 mmHg 70%
22:00 +3°C° 0.1 mm 3 m/s 764 mmHg 72%
23:00 +3°C° 0.1 mm 4 m/s 764 mmHg 75%

16 Avril, Vendredi

Heure Température Précipitation Vent Pression Humidité
00:00 +3°C° 0.1 mm 4 m/s 764 mmHg 77%
01:00 +3°C° 0.1 mm 4 m/s 764 mmHg 78%
02:00 +1°C° 0.1 mm 4 m/s 764 mmHg 78%
03:00 +1°C° 0.1 mm 4 m/s 764 mmHg 78%
04:00 0°C° 0 mm 4 m/s 764 mmHg 77%
05:00 0°C° 0 mm 4 m/s 764 mmHg 76%
06:00 0°C° 0 mm 4 m/s 764 mmHg 75%
07:00 +2°C° 0 mm 5 m/s 764 mmHg 66%
08:00 +5°C° 0 mm 5 m/s 764 mmHg 56%
09:00 +7°C° 0 mm 6 m/s 764 mmHg 47%
10:00 +8°C° 0 mm 6 m/s 764 mmHg 44%
11:00 +9°C° 0 mm 6 m/s 764 mmHg 41%
12:00 +10°C° 0 mm 6 m/s 764 mmHg 38%
13:00 +10°C° 0 mm 6 m/s 763 mmHg 39%
14:00 +10°C° 0 mm 6 m/s 763 mmHg 40%
15:00 +10°C° 0 mm 6 m/s 763 mmHg 41%
16:00 +9°C° 0 mm 6 m/s 763 mmHg 46%
17:00 +9°C° 0 mm 5 m/s 764 mmHg 51%
18:00 +8°C° 0 mm 5 m/s 764 mmHg 56%
19:00 +7°C° 0 mm 4 m/s 764 mmHg 61%
20:00 +6°C° 0 mm 4 m/s 764 mmHg 65%
21:00 +5°C° 0 mm 4 m/s 765 mmHg 70%
22:00 +4°C° 0 mm 3 m/s 764 mmHg 73%
23:00 +4°C° 0 mm 3 m/s 764 mmHg 77%

17 Avril, Samedi

Heure Température Précipitation Vent Pression Humidité
00:00 +3°C° 0 mm 3 m/s 764 mmHg 81%
01:00 +3°C° 0 mm 3 m/s 764 mmHg 82%
02:00 +2°C° 0 mm 3 m/s 764 mmHg 84%
03:00 +2°C° 0 mm 3 m/s 764 mmHg 85%
04:00 +2°C° 0 mm 3 m/s 764 mmHg 84%
05:00 +2°C° 0 mm 3 m/s 764 mmHg 83%
06:00 +2°C° 0 mm 3 m/s 764 mmHg 81%
07:00 +4°C° 0 mm 3 m/s 764 mmHg 73%
08:00 +6°C° 0 mm 4 m/s 764 mmHg 65%
09:00 +8°C° 0 mm 4 m/s 764 mmHg 57%
10:00 +10°C° 0 mm 4 m/s 763 mmHg 55%
11:00 +11°C° 0 mm 4 m/s 763 mmHg 53%
12:00 +10°C° 0 mm 5 m/s 763 mmHg 51%
13:00 +11°C° 0 mm 4 m/s 763 mmHg 53%
14:00 +11°C° 0 mm 4 m/s 763 mmHg 55%
15:00 +10°C° 0 mm 4 m/s 762 mmHg 57%
16:00 +10°C° 0 mm 4 m/s 762 mmHg 60%
17:00 +10°C° 0 mm 4 m/s 762 mmHg 63%
18:00 +9°C° 0 mm 3 m/s 763 mmHg 65%
19:00 +9°C° 0 mm 3 m/s 763 mmHg 68%
20:00 +8°C° 0 mm 3 m/s 763 mmHg 70%
21:00 +8°C° 0 mm 3 m/s 763 mmHg 72%
22:00 +7°C° 0 mm 3 m/s 763 mmHg 74%
23:00 +7°C° 0 mm 2 m/s 763 mmHg 75%

18 Avril, Dimanche

Heure Température Précipitation Vent Pression Humidité
00:00 +7°C° 0 mm 2 m/s 763 mmHg 77%
01:00 +7°C° 0 mm 2 m/s 763 mmHg 78%
02:00 +7°C° 0 mm 2 m/s 763 mmHg 79%
03:00 +7°C° 0 mm 2 m/s 763 mmHg 80%
04:00 +7°C° 0 mm 2 m/s 763 mmHg 80%
05:00 +7°C° 0 mm 2 m/s 763 mmHg 80%
06:00 +7°C° 0 mm 2 m/s 763 mmHg 80%
07:00 +7°C° 0 mm 2 m/s 763 mmHg 77%
08:00 +8°C° 0 mm 3 m/s 763 mmHg 73%
09:00 +8°C° 0 mm 3 m/s 763 mmHg 70%
10:00 +10°C° 0 mm 3 m/s 763 mmHg 65%
11:00 +11°C° 0 mm 3 m/s 763 mmHg 59%
12:00 +12°C° 0 mm 3 m/s 763 mmHg 54%
13:00 +12°C° 0 mm 3 m/s 763 mmHg 57%
14:00 +12°C° 0 mm 3 m/s 762 mmHg 59%
15:00 +12°C° 0 mm 3 m/s 762 mmHg 61%
16:00 +12°C° 0 mm 3 m/s 762 mmHg 63%
17:00 +11°C° 0 mm 3 m/s 762 mmHg 65%
18:00 +12°C° 0 mm 2 m/s 763 mmHg 66%
19:00 +10°C° 0 mm 2 m/s 763 mmHg 70%
20:00 +10°C° 0 mm 2 m/s 763 mmHg 74%
21:00 +10°C° 0 mm 1 m/s 763 mmHg 77%
22:00 +9°C° 0 mm 1 m/s 763 mmHg 79%
23:00 +9°C° 0 mm 1 m/s 763 mmHg 81%
Voir plus

Nous avons besoin de votre consentement

Meteoprog et ses fournisseurs de services peuvent stocker et accéder à des données personnelles telles que des cookies, des identifiants d'appareils ou d'autres technologies similaires sur votre appareil et traiter ces données pour personnaliser le contenu et les publicités, ainsi que pour fournir des fonctionnalités de médias sociaux et analyser le trafic.

  • Stocker et/ou accéder à des informations sur votre appareil

    Des cookies, des identifiants d'appareils ou d'autres informations peuvent être stockés ou accessibles sur votre appareil aux fins indiquées ci-dessus.

  • Annonces et contenus personnalisés, mesure des annonces et des contenus, connaissance de l'audience et développement de produits

    Les annonces et le contenu peuvent être personnalisés en fonction d'un profil. D'autres données peuvent être ajoutées pour mieux personnaliser les annonces et le contenu. Les performances des publicités et du contenu peuvent être mesurées. Il est possible d'obtenir des informations sur le public qui a vu les publicités et le contenu. Ces données peuvent être utilisées pour développer ou améliorer l'expérience de l'utilisateur, les systèmes et les logiciels.

En cliquant sur "J'accepte", vous autorisez l'utilisation de cookies, des identifiants d'appareils, des balises web ou d'autres technologies similaires. Vos paramètres peuvent être modifiés dans le navigateur de votre appareil.

Dans certains cas, des intérêts légitimes peuvent être invoqués plutôt qu'un consentement. Vous pouvez en savoir plus à ce sujet dans notre Politique de confidentialité et de cookies.